Location: Azenweiler
(47.8027°N, 9.4096°E)
Time: 03:11:54
(UTC+00:00)

Orbus 7S? - Pass Details

Date: 10 December 2025
Orbit: 354 x 6170 km, 56.9° (Epoch: 30 September)

Event Time Altitude Azimuth Distance (km) Brightness Sun altitude
Exits shadow 04:48:21 30° 41° (NE) 676 4.0 -21.1°
Drops below altitude 10° 04:50:27 10° 92° (E) 1,355 6.5 -20.8°
Sets 04:52:38 0° 104° (ESE) 2,355 8.2 -20.4°
